Regional Weather Roundup
Issued by NWS

Home | Current Version | Previous Version | Text Only | Print | Product List | Glossary On
Versions: 1 2 3 4 5 6 7 8 9 10 11 12 13 14 15 16 17 18 19 20 21 22 23 24 25 26 27 28 29 30 31 32 33 34 35 36 37 38 39 40 41 42 43 44 45 46 47 48 49 50
000
ASUS46 KPQR 032310
RWROR

OREGON REGIONAL WEATHER ROUNDUP
NATIONAL WEATHER SERVICE PORTLAND OR
400 PM PDT FRI JUL 03 2015

NOTE: "FAIR" INDICATES FEW OR NO CLOUDS BELOW 12,000 FEET WITH
NO SIGNIFICANT WEATHER AND/OR OBSTRUCTIONS TO VISIBILITY.

ORZ001>013-040000-
NORTHWEST OREGON


CITY           SKY/WX    TMP DP  RH WIND       PRES   REMARKS
ASTORIA        SUNNY     69  55  60 W12       29.98F
NEWPORT        SUNNY     63  55  77 NW17G29   30.01S
PORTLAND       MOSUNNY   94  58  29 NW9       29.85F HX  93
VANCOUVER WA   SUNNY     94  56  27 W9        29.85F HX  92
SCAPPOOSE      SUNNY     93  58  30 E9        29.85F HX  92
HILLSBORO      SUNNY     96  49  20 NE6       29.85F HX  93
AURORA         SUNNY     96  43  16 N14       29.86F HX  92
MCMINNVILLE    SUNNY     98  50  19 CALM      29.86F HX  95
SALEM          SUNNY     98  37  12 N7        29.85F HX  93
CORVALLIS      SUNNY     97  54  23 NW15      29.88F HX  94
EUGENE         MOSUNNY   99  44  15 W8        29.87F HX  95
$$

ORZ021-028-040000-
SOUTHWEST OREGON


CITY           SKY/WX    TMP DP  RH WIND       PRES   REMARKS
NORTH BEND     SUNNY     64  57  77 N20G28    29.97F
BROOKINGS      MOSUNNY   65  60  83 CALM      29.95F
ROSEBURG       SUNNY     99  52  20 MISG      29.84F HX  96
SEXTON SUMMIT  MOSUNNY   78  44  29 CALM      30.05F
MEDFORD        PTSUNNY  100  49  17 NW7       29.85F HX  97
$$

ORZ014>016-041-040000-
COLUMBIA GORGE


CITY           SKY/WX    TMP DP  RH WIND       PRES   REMARKS
TROUTDALE      SUNNY     95  53  24 W9        29.83F HX  92
THE DALLES     SUNNY     99  54  22 NW17      29.73F HX  97
$$

ORZ029>031-041-044-049-050-061>064-502-503-505>511-040000-
EASTERN OREGON


CITY           SKY/WX    TMP DP  RH WIND       PRES   REMARKS
REDMOND        SUNNY     97  34  11 N14       29.92F HX  91
BEND             N/A    N/A N/A N/A MISG        N/A
PRINEVILLE     SUNNY     97  18   5 N12G17    29.94F HX  90
KLAMATH FALLS  MOSUNNY   94  41  16 NW14      30.00F HX  90
LAKEVIEW       PTSUNNY   95  52  23 S9G17     30.01F HX  92
HERMISTON      SUNNY    103  41  12 N6        29.73F HX  98
PENDLETON      SUNNY    102  39  11 W10G16    29.79F HX  97
JOHN DAY       SUNNY     99  35  11 NW6G16    29.93F HX  93
MEACHAM        SUNNY     92  37  14 MISG      29.96F
LA GRANDE      SUNNY     97  41  14 CALM      29.87F HX  92
BAKER CITY     SUNNY     96  41  15 NW13      29.92F HX  92
BURNS          SUNNY    100  33   9 W7G18     29.94F HX  94
ROME             N/A    102  32   8 S8        29.91F HX  95
ONTARIO        SUNNY    103  36  10 VRB3      29.79F HX  97
$$



USA.gov is the U.S. government's official web portal to all federal, state and local government web resources and services.